Probability
13 13 13 13 12 9 6 5 7 10 12 14 15 14 14 14 13 11 11 11 9 7 5 5 6 7 7 6 6 4 1 0 0 0 0 1 2 2 1 0 0 0 0
15 15 15 13 11 9 6 5 7 9 11 14 15 15 16 16 15 15 15 14 13 10 7 7 7 7 7 6 4 3 2 1 0 0 0 1 1 1 1 0 0 0 0
19 18 17 15 11 8 7 7 9 10 12 14 16 17 19 18 17 16 17 17 16 14 12 10 9 7 7 6 3 3 3 2 1 0 0 0 0 0 0 0 0 0 0
20 19 18 15 11 7 6 8 10 12 13 14 15 16 18 18 16 15 15 16 16 14 13 11 10 8 6 5 3 3 3 3 1 0 0 0 0 0 0 0 0 0 0
19 18 16 13 9 7 7 10 11 12 13 14 14 14 15 16 16 14 14 14 14 13 11 10 9 7 5 4 3 3 4 4 2 1 0 0 0 0 0 0 0 0 0
16 15 12 10 9 10 11 13 13 12 13 14 13 12 12 14 14 13 12 13 12 11 9 8 8 6 5 4 3 3 4 4 3 2 1 2 1 0 0 0 0 0 0
13 12 11 11 11 13 14 14 14 14 15 15 13 12 11 12 11 10 10 11 11 9 8 7 7 6 6 6 5 3 3 3 3 3 3 3 2 1 0 0 0 0 0
12 11 10 11 12 12 13 14 14 15 17 16 14 11 10 9 9 8 8 10 10 8 7 6 6 7 8 8 7 5 2 1 1 3 3 3 3 1 0 0 0 0 0
12 11 9 9 10 11 11 12 13 13 14 14 13 11 10 7 5 4 5 8 9 7 6 6 6 7 7 7 7 6 2 1 1 2 3 3 3 2 1 0 0 0 0
9 9 8 7 8 10 11 12 12 10 10 10 10 10 9 6 3 1 3 7 9 7 5 5 6 6 5 5 5 5 3 2 2 3 3 3 3 2 1 0 0 0 0
6 7 7 7 8 11 12 12 12 11 10 10 8 8 8 5 2 0 1 5 7 6 5 5 6 5 3 2 3 3 2 2 2 2 3 3 3 3 1 0 0 0 0
6 6 7 7 9 12 12 12 12 14 13 11 8 7 6 5 2 1 1 2 4 5 5 5 4 3 1 1 1 1 1 1 1 1 1 2 3 3 2 1 0 0 0
6 6 7 7 8 10 11 10 11 13 14 12 11 10 9 7 3 2 1 1 1 3 3 3 2 1 0 0 0 0 0 0 0 0 0 1 2 3 3 2 1 0 0
4 5 5 5 5 6 7 9 10 11 11 11 12 13 12 10 6 4 3 1 1 1 1 1 0 0 0 0 0 0 0 0 0 0 0 0 1 3 3 2 1 0 0
4 4 4 4 3 2 3 6 7 7 7 7 9 10 10 8 6 4 3 2 2 1 0 0 0 0 0 0 0 0 0 0 0 0 0 0 1 2 3 2 1 0 0
5 4 4 3 2 1 1 3 3 3 2 2 3 3 4 3 2 2 1 1 1 1 0 0 0 0 1 1 1 1 1 0 0 0 0 0 1 2 2 1 0 0 0
6 5 4 3 3 1 1 1 1 1 0 0 0 0 0 0 0 0 0 0 0 0 0 0 0 1 2 2 2 2 2 1 1 1 0 0 0 1 1 0 0 0 0
6 6 5 4 3 2 1 0 0 0 0 0 0 0 0 0 0 0 0 0 0 0 0 0 0 1 2 2 2 2 2 2 2 2 1 0 1 1 1 0 0 0 0
6 6 6 5 5 3 1 0 0 0 0 0 0 0 0 0 0 0 0 0 0 0 0 0 0 0 1 1 1 1 1 3 3 3 2 2 2 2 2 1 1 1 1
6 6 6 5 5 3 1 0 0 0 0 0 0 0 0 0 0 0 0 0 0 0 0 0 0 0 0 0 0 0 1 2 3 3 3 3 3 3 3 3 2 2 2
6 6 6 5 4 2 1 0 0 0 0 0 0 0 0 1 1 1 0 0 0 0 0 0 0 0 0 1 1 1 1 3 3 3 3 3 3 3 3 3 3 3 3
7 7 6 5 4 2 0 0 0 0 0 0 0 0 1 2 3 2 1 1 1 0 0 0 0 1 1 2 2 2 3 3 3 3 3 3 3 3 3 3 3 3 3
9 9 7 5 3 2 1 1 1 0 0 1 1 0 2 4 5 4 2 2 2 1 1 1 1 2 2 3 3 3 3 3 3 3 3 3 3 3 3 3 3 3 3
11 11 8 5 3 3 2 2 1 0 1 2 2 2 3 5 6 5 4 3 2 2 2 1 1 1 2 2 3 3 3 3 3 3 3 3 3 3 3 3 3 3 3
12 11 9 7 5 4 3 2 1 1 1 3 3 3 3 4 4 4 2 1 1 1 1 1 0 0 0 1 2 3 3 3 2 3 3 3 3 3 3 3 3 3 3
11 10 9 8 7 5 2 1 1 1 2 3 3 3 3 3 2 1 1 0 0 0 0 0 0 0 0 0 1 3 3 2 1 2 3 3 3 3 3 3 3 3 3
Wind_Speed
6 5 5 4 4 3 3 3 3 2 2 2 2 2 1 1 1 1 1 1 1 1 1 1 1 1 0 0 1 1 1 2 1 2 1 1 0 0 1 1 1 1 2
6 6 5 4 3 3 3 3 3 3 2 2 2 2 2 2 2 2 2 1 2 2 2 1 1 1 0 0 1 1 1 1 2 1 1 1 1 1 1 1 0 1 1
6 6 5 4 4 4 4 4 3 3 3 2 2 3 3 2 2 2 3 2 2 3 3 2 2 1 1 1 1 1 1 1 1 1 1 1 1 0 0 0 1 1 2
4 5 5 5 5 5 4 4 3 3 3 3 3 3 3 3 2 2 3 3 2 2 2 2 2 3 3 2 1 1 1 1 1 1 1 1 1 1 1 1 1 1 2
4 4 4 4 4 4 3 4 3 3 3 3 2 2 2 2 3 3 3 3 3 2 1 2 2 2 2 2 2 2 2 1 1 1 1 1 1 1 1 1 1 1 2
4 3 3 2 2 3 3 3 3 3 3 3 2 2 2 2 2 4 3 2 2 2 2 1 1 1 1 1 2 3 3 3 3 2 2 2 3 3 2 2 1 1 2
3 2 2 2 2 3 3 3 4 4 3 3 2 2 2 2 3 3 4 3 3 3 3 2 1 1 1 1 1 1 2 3 4 4 3 4 3 4 3 2 2 2 3
2 2 2 2 2 2 2 3 4 3 3 3 3 3 3 3 3 4 4 3 2 2 3 3 3 2 2 1 1 1 2 2 3 3 4 4 4 4 4 4 3 2 2
2 2 2 2 2 2 2 3 3 3 2 2 2 3 3 3 4 4 4 2 2 2 2 3 3 3 3 2 1 1 2 3 2 2 3 3 3 3 3 2 1 1 1
2 2 1 2 2 2 2 2 2 2 3 2 2 3 3 4 5 4 4 2 2 2 2 2 3 3 3 3 2 2 2 3 2 2 2 3 2 2 2 3 4 3 2
1 1 1 1 1 1 1 2 2 2 2 2 2 2 3 4 4 5 5 3 3 3 2 2 2 3 3 3 3 3 4 3 1 1 1 2 2 1 1 2 3 4 3
1 1 1 1 1 1 0 1 1 2 2 2 2 2 3 3 3 4 5 5 4 3 3 2 2 3 3 2 2 2 2 1 0 0 1 1 2 2 2 2 2 3 3
1 0 1 1 1 0 1 1 2 1 2 2 2 3 3 2 3 4 4 5 5 3 3 3 2 3 2 1 1 0 1 1 1 1 1 2 2 2 2 1 1 1 1
1 1 1 1 1 1 1 1 2 2 2 2 2 3 3 2 2 2 2 2 3 2 1 1 2 2 1 0 1 0 1 1 2 2 2 2 1 1 1 0 0 0 1
1 1 1 1 2 1 1 1 2 2 3 3 3 3 3 3 4 4 4 3 3 3 2 1 1 0 0 1 1 1 1 1 1 1 1 1 1 1 1 1 0 0 0
1 1 1 1 1 1 1 1 2 2 2 2 4 3 3 4 4 5 5 4 4 5 4 2 2 2 2 2 2 2 1 2 2 1 1 1 2 2 2 1 0 1 1
2 2 1 1 1 1 1 1 1 3 2 2 2 2 3 3 3 4 4 4 4 5 3 2 3 3 3 3 2 2 2 2 2 2 2 2 2 2 1 1 1 1 1
2 2 2 2 2 2 2 2 2 2 2 2 2 2 2 2 2 3 4 4 2 2 3 3 3 3 3 3 2 2 2 2 1 2 2 2 2 1 1 1 1 1 1
2 2 2 2 2 2 1 1 2 2 2 2 1 2 1 1 1 2 4 3 3 3 3 3 3 3 3 3 3 3 3 2 2 2 2 2 2 1 1 1 1 2 1
2 4 3 2 2 1 1 1 2 2 2 2 2 2 1 1 1 1 2 2 3 3 3 3 3 3 3 3 3 2 2 2 2 2 2 2 2 2 2 2 2 2 2
2 2 2 1 1 2 1 2 2 2 2 2 2 2 3 2 2 2 2 3 3 3 3 3 3 3 3 2 2 2 3 3 2 2 2 2 2 2 2 2 2 2 2
2 2 2 2 2 1 1 2 1 1 2 2 1 1 3 1 1 1 2 2 3 3 3 3 3 2 2 2 3 3 3 3 3 2 2 2 2 2 2 1 1 2 2
1 2 1 1 1 1 1 1 1 1 1 1 1 1 1 1 1 2 2 2 2 2 2 2 2 2 2 2 3 3 4 4 4 3 3 3 2 2 2 2 2 2 3
2 1 1 2 1 1 2 2 1 1 2 1 1 1 1 1 1 2 2 2 2 2 2 2 2 3 3 2 2 2 2 3 3 3 4 4 3 2 2 3 3 3 3
2 1 1 1 1 1 1 2 2 2 1 2 1 1 1 1 2 2 2 1 2 2 2 2 2 2 3 3 2 2 2 3 3 2 3 3 3 3 3 3 3 3 3
1 1 1 1 1 1 1 1 1 1 1 1 1 1 1 2 2 1 1 1 1 1 1 1 2 2 2 1 2 2 2 2 2 2 2 3 3 2 2 2 3 3 2
Wind_Direction
185 184 180 187 185 176 173 186 192 198 190 194 204 191 193 220 208 181 205 175 169 183 181 151 214 207 179 147 117 115 135 146 183 265 257 280 151 245 326 304 257 208 212
184 180 188 193 186 184 189 199 192 191 195 193 197 192 205 220 213 189 203 204 187 188 202 190 223 176 158 212 159 155 188 187 173 234 280 285 248 220 215 235 251 209 224
183 183 189 193 194 203 208 206 196 194 201 203 195 202 215 222 222 210 191 198 202 201 201 199 208 165 187 216 187 196 214 199 171 184 246 261 274 257 118 280 285 275 239
177 185 194 203 204 206 206 205 202 196 196 209 217 216 217 220 219 214 198 192 197 206 210 200 194 186 193 199 189 206 191 160 179 192 231 263 272 283 144 216 287 286 261
175 184 197 206 209 207 202 200 198 196 203 207 210 226 237 228 222 207 206 195 197 206 216 206 199 190 190 198 200 197 173 170 183 204 247 278 274 244 232 224 233 275 281
172 181 183 183 192 200 200 196 191 196 203 193 201 215 238 250 222 197 182 180 179 187 213 234 222 215 230 233 228 206 186 192 205 203 223 234 242 233 223 216 207 214 275
158 170 177 179 186 197 197 186 191 201 199 191 204 197 216 248 220 192 181 174 181 197 206 214 232 247 252 253 264 268 256 235 207 192 209 232 231 225 207 220 217 214 232
147 157 181 186 196 203 197 203 211 202 194 199 209 211 214 237 216 199 185 179 192 208 208 202 205 232 243 203 200 278 274 262 234 206 211 231 232 228 210 209 213 230 276
152 181 188 184 189 192 212 223 221 198 194 205 206 208 217 241 224 205 184 179 195 217 214 201 194 211 229 198 174 243 297 297 282 251 241 249 248 236 200 151 158 162 272
183 199 192 189 188 202 220 223 223 207 203 199 220 221 213 232 233 218 192 184 197 217 230 227 215 216 226 197 182 195 246 272 298 330 327 316 296 271 217 186 185 191 217
202 191 191 193 206 214 227 231 223 214 200 206 229 243 229 227 228 224 204 188 197 206 218 232 240 229 227 222 207 206 227 238 254 277 308 316 317 307 272 228 200 190 197
144 183 225 234 241 238 167 301 262 216 207 229 237 254 252 236 222 227 214 202 196 192 216 225 225 218 214 222 219 232 220 197 183 286 295 287 289 284 273 252 228 216 208
121 226 244 260 267 249 190 248 280 255 207 227 225 236 250 252 242 236 217 208 206 201 218 217 219 208 202 224 264 223 148 137 158 217 251 259 256 259 268 282 314 293 293
186 252 255 254 280 286 243 232 236 236 228 233 233 232 234 242 239 219 199 204 205 206 215 207 199 191 181 240 268 233 195 189 189 211 238 261 288 307 295 258 268 311 339
223 251 260 252 241 251 260 257 248 247 229 221 232 219 211 231 235 208 186 189 188 186 153 117 98 111 258 284 275 254 231 211 215 235 241 270 284 286 282 278 211 140 158
235 264 250 241 238 224 212 327 327 271 277 253 233 215 228 225 215 191 182 177 172 159 139 158 203 216 222 229 237 251 241 230 229 227 228 233 238 246 260 268 196 173 219
236 244 251 248 239 229 214 206 273 318 332 319 283 232 201 197 190 181 171 154 153 153 159 204 218 222 226 227 228 229 239 238 225 217 221 231 235 237 232 238 226 212 239
242 236 237 243 244 237 227 218 217 234 282 305 298 263 218 200 202 178 152 127 138 174 200 211 220 219 218 219 222 231 236 233 226 230 230 230 227 221 228 231 224 222 241
251 251 245 244 248 250 245 227 225 235 247 265 283 297 259 199 199 206 155 161 190 208 212 212 213 213 218 221 225 224 215 210 212 217 222 225 224 214 229 234 234 243 234
255 262 262 242 245 255 248 244 248 234 236 245 249 246 197 127 164 199 191 199 209 219 215 212 212 210 213 217 221 215 213 214 209 210 220 220 215 203 208 217 213 219 232
263 260 257 245 236 237 238 240 248 241 237 241 245 233 185 182 199 206 204 210 216 220 218 212 212 214 217 216 211 205 204 210 204 202 209 215 209 211 214 208 212 219 230
259 258 242 233 235 243 247 250 252 245 240 243 260 251 196 193 210 217 218 226 229 228 220 203 204 211 215 212 203 199 202 205 208 211 217 214 204 209 211 214 222 229 226
269 270 259 241 226 239 250 257 243 239 238 229 226 238 194 212 235 240 236 237 236 234 224 205 200 209 212 213 205 195 200 210 210 204 205 210 208 207 209 220 226 228 228
270 266 245 231 221 237 241 246 242 231 230 226 222 216 208 221 240 248 244 241 233 229 218 199 192 194 196 199 198 196 204 210 204 199 197 199 203 210 215 225 229 225 222
285 284 266 237 225 237 247 252 251 245 235 224 224 231 226 223 241 257 257 236 220 218 217 197 182 177 187 192 191 193 191 188 195 197 193 192 200 212 221 229 229 229 226
289 286 274 245 230 234 233 242 253 245 230 227 232 240 229 224 234 247 247 217 215 213 194 164 166 167 170 193 181 162 167 181 190 195 190 190 197 212 223 232 230 225 220